Terminal Aerodrome Forecast
Issued by NWS

Home | Current Version | Previous Version | Text Only | Print | Product List | Glossary On
Versions: 1 2 3 4 5 6 7 8 9 10 11 12 13 14 15 16 17 18 19 20 21 22 23 24 25 26 27 28 29 30 31 32 33 34 35 36 37
094
FTUS43 KDMX 071731
TAFOTM
TAF
KOTM 071731Z 0718/0818 29016G23KT P6SM SCT120
     FM080100 29016G23KT 5SM -SHSN OVC020
     FM080600 32022G32KT 2SM -SHSN BLSN SCT006 OVC015=

USA.gov is the U.S. government's official web portal to all federal, state and local government web resources and services.